FW5744 Weather Reports


Display with metric or nautical units.
time (UTC)temp
F
wind
direction
speed
MPH
gust
MPH
rain 1hr
in
rain 24hr
in
rain mn
in
humidity
%
barometer
mb
20220126045052 28 14 4.0 9.0 0.00 0.00 0.00 58 1021.3
20220126044557 28 14 4.0 11.0 0.00 0.00 0.00 58 1021.3
20220126044028 28 21 5.0 11.0 0.00 0.00 0.00 60 1021.1
20220126043516 28 28 3.0 6.0 0.00 0.00 0.00 60 1021.0
20220126043032 28 25 3.0 6.0 0.00 0.00 0.00 60 1021.1
20220126042515 28 10 2.0 5.0 0.00 0.00 0.00 60 1021.1
20220126042014 28 345 2.0 5.0 0.00 0.00 0.00 60 1021.2
20220126041516 28 359 2.0 4.0 0.00 0.00 0.00 61 1021.4
20220126041020 28 14 2.0 5.0 0.00 0.00 0.00 60 1021.3
20220126040521 28 27 2.0 5.0 0.00 0.00 0.00 60 1021.3
20220126040014 29 10 1.0 6.0 0.00 0.00 0.00 60 1021.3
20220126035534 29 12 3.0 6.0 0.00 0.00 0.00 59 1021.3
20220126035011 29 8 2.0 8.0 0.00 0.00 0.00 59 1021.2
20220126034513 29 9 3.0 9.0 0.00 0.00 0.00 58 1021.2
20220126034010 29 8 4.0 13.0 0.00 0.00 0.00 58 1021.2
20220126033528 29 4 6.0 13.0 0.00 0.00 0.00 58 1021.1
20220126033022 29 46 6.0 9.0 0.00 0.00 0.00 58 1021.1
20220126032511 30 322 3.0 6.0 0.00 0.00 0.00 58 1021.1
20220126032011 30 16 3.0 8.0 0.00 0.00 0.00 57 1020.9
20220126031517 30 4 4.0 8.0 0.00 0.00 0.00 57 1020.9
20220126031003 30 347 3.0 5.0 0.00 0.00 0.00 57 1020.7
20220126030503 30 354 2.0 6.0 0.00 0.00 0.00 56 1020.8
20220126030011 30 314 3.0 6.0 0.00 0.00 0.00 56 1020.8
20220126025503 30 22 3.0 9.0 0.00 0.00 0.00 56 1020.8
20220126025001 30 320 3.0 8.0 0.00 0.00 0.00 57 1020.6
20220126024505 30 316 4.0 8.0 0.00 0.00 0.00 57 1020.7
20220126024101 30 321 2.0 5.0 0.00 0.00 0.00 57 1020.5
20220126023600 31 327 3.0 8.0 0.00 0.00 0.00 57 1020.6
20220126022558 31 303 2.0 6.0 0.00 0.00 0.00 58 1020.4
20220126022057 31 338 3.0 9.0 0.00 0.00 0.00 59 1020.4
20220126021738 31 318 2.0 9.0 0.00 0.00 0.00 59 1020.3
20220126021056 31 317 4.0 8.0 0.00 0.00 0.00 60 1020.2
20220126020556 31 329 2.0 6.0 0.00 0.00 0.00 61 1020.2
20220126020153 31 4 2.0 6.0 0.00 0.00 0.00 61 1020.0
20220126015603 32 354 3.0 8.0 0.00 0.00 0.00 61 1019.9
20220126015105 32 4 3.0 8.0 0.00 0.00 0.00 61 1019.9
20220126014716 32 359 3.0 13.0 0.00 0.00 0.00 60 1019.8
20220126014134 32 320 4.0 13.0 0.00 0.00 0.00 60 1019.7
20220126013552 32 359 3.0 9.0 0.00 0.00 0.00 61 1019.6
20220126013117 32 315 3.0 9.0 0.00 0.00 0.00 61 1019.6
20220126012612 32 326 5.0 9.0 0.00 0.00 0.00 61 1019.4
20220126012049 32 359 3.0 8.0 0.00 0.00 0.00 63 1019.3
20220126011615 32 339 3.0 8.0 0.00 0.00 0.00 64 1019.3
20220126011049 32 332 1.0 4.0 0.00 0.00 0.00 64 1019.3
20220126010551 32 359 2.0 4.0 0.00 0.00 0.00 64 1019.3
20220126010130 32 4 1.0 4.0 0.00 0.00 0.00 64 1019.4
20220126005547 32 328 2.0 4.0 0.00 0.00 0.00 64 1019.2
20220126005052 32 4 2.0 4.0 0.00 0.00 0.00 64 1019.1
20220126004552 33 359 2.0 4.0 0.00 0.00 0.00 63 1019.1
20220126004056 33 347 2.0 4.0 0.00 0.00 0.00 63 1019.1
20220126003546 33 8 1.0 4.0 0.00 0.00 0.00 63 1019.1
20220126003144 33 25 1.0 4.0 0.00 0.00 0.00 63 1018.8
20220126002554 33 337 1.0 4.0 0.00 0.00 0.00 63 1018.8
20220126002045 33 342 1.0 5.0 0.00 0.00 0.00 62 1018.8
20220126001601 34 359 2.0 5.0 0.00 0.00 0.00 61 1018.8
20220126001044 34 333 2.0 5.0 0.00 0.00 0.00 61 1018.8
20220126000543 34 310 3.0 8.0 0.00 0.00 0.00 61 1018.6
20220126000120 34 359 3.0 8.0 0.00 0.00 0.00 61 1018.6
20220125235543 34 359 2.0 11.0 0.00 0.00 0.00 61 1018.5
20220125235053 34 336 5.0 11.0 0.00 0.00 0.00 60 1018.3
20220125234557 34 8 5.0 12.0 0.00 0.00 0.00 61 1018.2
20220125234047 34 324 6.0 13.0 0.00 0.00 0.00 61 1018.1
20220125233540 35 325 5.0 13.0 0.00 0.00 0.00 61 1017.9
20220125233101 35 359 3.0 10.0 0.00 0.00 0.00 61 1017.9
20220125232540 35 336 4.0 11.0 0.00 0.00 0.00 60 1017.7
20220125232037 35 36 5.0 12.0 0.00 0.00 0.00 60 1017.7
20220125231625 36 31 4.0 11.0 0.00 0.00 0.00 58 1017.7
20220125231037 36 30 4.0 9.0 0.00 0.00 0.00 54 1017.5
20220125230542 36 310 3.0 10.0 0.00 0.00 0.00 54 1017.2
20220125230133 36 302 3.0 10.0 0.00 0.00 0.00 55 1017.2
20220125225539 36 277 2.0 7.0 0.00 0.00 0.00 55 1017.1
20220125225035 36 287 3.0 7.0 0.00 0.00 0.00 55 1017.0
20220125224549 37 264 2.0 8.0 0.00 0.00 0.00 55 1016.9
20220125224031 37 281 4.0 8.0 0.00 0.00 0.00 55 1016.7
20220125223530 37 274 3.0 11.0 0.00 0.00 0.00 55 1016.6
20220125223210 37 271 4.0 11.0 0.00 0.00 0.00 54 1016.5
20220125222529 37 278 5.0 11.0 0.00 0.00 0.00 54 1016.5
20220125222035 37 303 4.0 15.0 0.00 0.00 0.00 54 1016.3
20220125221632 37 338 4.0 12.0 0.00 0.00 0.00 54 1016.3
20220125221032 38 296 6.0 13.0 0.00 0.00 0.00 54 1016.3
20220125220533 38 297 6.0 13.0 0.00 0.00 0.00 54 1016.3
20220125220036 38 359 5.0 12.0 0.00 0.00 0.00 54 1016.1
20220125215523 39 302 5.0 14.0 0.00 0.00 0.00 54 1016.1
20220125215033 39 359 7.0 14.0 0.00 0.00 0.00 54 1016.0
20220125214537 39 332 4.0 13.0 0.00 0.00 0.00 54 1015.8
20220125214021 39 271 6.0 15.0 0.00 0.00 0.00 54 1015.7
20220125213521 39 251 5.0 15.0 0.00 0.00 0.00 54 1015.7
20220125213101 40 258 5.0 17.0 0.00 0.00 0.00 54 1015.6
20220125212520 40 309 5.0 19.0 0.00 0.00 0.00 53 1015.4
20220125212020 40 267 11.0 19.0 0.00 0.00 0.00 53 1015.4
20220125211523 40 293 8.0 17.0 0.00 0.00 0.00 53 1015.4
20220125211022 40 273 6.0 12.0 0.00 0.00 0.00 52 1015.3
20220125210537 40 310 7.0 16.0 0.00 0.00 0.00 52 1015.3
20220125210028 41 247 8.0 16.0 0.00 0.00 0.00 52 1015.1
20220125205516 41 300 7.0 14.0 0.00 0.00 0.00 52 1015.0
20220125205025 41 280 6.0 14.0 0.00 0.00 0.00 52 1015.0
20220125204519 41 295 6.0 17.0 0.00 0.00 0.00 52 1015.0
20220125204016 41 354 9.0 17.0 0.00 0.00 0.00 52 1015.0
20220125203515 42 354 8.0 14.0 0.00 0.00 0.00 53 1014.9
20220125203045 41 329 5.0 14.0 0.00 0.00 0.00 53 1014.7
20220125202516 42 322 6.0 12.0 0.00 0.00 0.00 53 1014.7
20220125202013 41 272 6.0 13.0 0.00 0.00 0.00 53 1014.6
20220125201612 41 268 5.0 15.0 0.00 0.00 0.00 54 1014.7
20220125201013 41 303 5.0 15.0 0.00 0.00 0.00 54 1014.6
20220125200517 41 314 8.0 17.0 0.00 0.00 0.00 54 1014.6
20220125200016 41 359 8.0 17.0 0.00 0.00 0.00 54 1014.6
20220125195513 41 301 7.0 18.0 0.00 0.00 0.00 55 1014.5
20220125195013 41 287 7.0 16.0 0.00 0.00 0.00 55 1014.4
20220125194523 42 317 9.0 16.0 0.00 0.00 0.00 55 1014.4
20220125194010 42 359 4.0 10.0 0.00 0.00 0.00 58 1014.2
20220125193511 42 289 4.0 12.0 0.00 0.00 0.00 58 1014.3
20220125193013 42 272 5.0 13.0 0.00 0.00 0.00 58 1014.1
20220125192524 42 312 5.0 13.0 0.00 0.00 0.00 58 1014.0
20220125192010 42 347 4.0 12.0 0.00 0.00 0.00 58 1014.0
20220125191513 42 304 6.0 12.0 0.00 0.00 0.00 58 1013.9
20220125191010 42 310 4.0 11.0 0.00 0.00 0.00 61 1013.9
20220125190509 42 359 4.0 12.0 0.00 0.00 0.00 62 1013.9
20220125190020 42 295 5.0 12.0 0.00 0.00 0.00 62 1013.9
20220125185509 42 280 7.0 12.0 0.00 0.00 0.00 63 1013.9
20220125185012 42 261 8.0 12.0 0.00 0.00 0.00 63 1013.9
20220125184538 41 276 6.0 10.0 0.00 0.00 0.00 64 1013.8
20220125184008 41 359 5.0 9.0 0.00 0.00 0.00 64 1013.8
20220125183505 41 258 5.0 9.0 0.00 0.00 0.00 64 1013.8
20220125183004 41 231 3.0 9.0 0.00 0.00 0.00 65 1013.6
20220125182507 41 293 4.0 10.0 0.00 0.00 0.00 65 1013.7
20220125182003 41 260 6.0 10.0 0.00 0.00 0.00 64 1013.6
20220125181508 40 270 4.0 8.0 0.00 0.00 0.00 66 1013.7
20220125181001 40 359 3.0 8.0 0.00 0.00 0.00 66 1013.8
20220125180500 40 239 2.0 10.0 0.00 0.00 0.00 66 1013.7
20220125180153 40 359 5.0 10.0 0.00 0.00 0.00 66 1013.8
20220125175558 40 264 4.0 8.0 0.00 0.00 0.00 66 1013.6
20220125175109 40 297 4.0 8.0 0.00 0.00 0.00 66 1013.7
20220125174559 40 277 2.0 8.0 0.00 0.00 0.00 67 1013.9
20220125174059 39 359 3.0 8.0 0.00 0.00 0.00 67 1013.8
20220125173556 39 274 3.0 10.0 0.00 0.00 0.00 67 1013.9
20220125173232 39 272 2.0 10.0 0.00 0.00 0.00 68 1013.9
20220125172554 39 265 5.0 9.0 0.00 0.00 0.00 68 1014.0
20220125172054 39 279 4.0 8.0 0.00 0.00 0.00 68 1013.8
20220125171649 39 266 5.0 8.0 0.00 0.00 0.00 68 1014.0
20220125171102 39 239 3.0 7.0 0.00 0.00 0.00 69 1014.3
20220125170629 39 280 2.0 7.0 0.00 0.00 0.00 69 1014.1
20220125170101 39 288 2.0 9.0 0.00 0.00 0.00 69 1014.2
20220125165549 38 269 3.0 9.0 0.00 0.00 0.00 69 1014.4
20220125165055 38 277 3.0 8.0 0.00 0.00 0.00 70 1014.5
20220125164557 38 285 3.0 8.0 0.00 0.00 0.00 70 1014.4
20220125164047 38 262 2.0 8.0 0.00 0.00 0.00 71 1014.4
20220125163547 38 268 4.0 8.0 0.00 0.00 0.00 71 1014.5
20220125163104 38 359 2.0 9.0 0.00 0.00 0.00 71 1014.7
20220125162547 38 274 3.0 9.0 0.00 0.00 0.00 71 1014.6
20220125162049 38 247 4.0 6.0 0.00 0.00 0.00 72 1014.7
20220125161620 38 247 2.0 7.0 0.00 0.00 0.00 72 1014.4
20220125161042 37 264 2.0 7.0 0.00 0.00 0.00 72 1014.4
20220125160543 37 267 1.0 3.0 0.00 0.00 0.00 72 1014.4
20220125160048 37 271 0.0 3.0 0.00 0.00 0.00 72 1014.6
20220125155541 37 264 1.0 6.0 0.00 0.00 0.00 72 1014.7
20220125155041 37 238 2.0 6.0 0.00 0.00 0.00 72 1014.7
20220125154557 37 217 2.0 5.0 0.00 0.00 0.00 72 1014.6
20220125154039 37 243 2.0 5.0 0.00 0.00 0.00 73 1014.7
20220125153540 37 264 3.0 5.0 0.00 0.00 0.00 73 1014.7
20220125153053 37 266 2.0 4.0 0.00 0.00 0.00 73 1014.7
20220125152536 37 268 1.0 6.0 0.00 0.00 0.00 73 1014.5
20220125152037 37 254 3.0 6.0 0.00 0.00 0.00 73 1014.5
20220125151631 36 245 1.0 4.0 0.00 0.00 0.00 73 1014.4
20220125151035 36 243 2.0 5.0 0.00 0.00 0.00 74 1014.3
20220125150534 36 239 3.0 5.0 0.00 0.00 0.00 74 1014.2
20220125150123 36 283 0.0 8.0 0.00 0.00 0.00 74 1014.0
20220125145533 36 289 2.0 8.0 0.00 0.00 0.00 74 1014.0
20220125145032 36 324 4.0 8.0 0.00 0.00 0.00 74 1014.0
20220125144626 36 272 3.0 9.0 0.00 0.00 0.00 74 1013.9
20220125144026 36 276 3.0 9.0 0.00 0.00 0.00 74 1013.9
20220125143526 36 359 3.0 8.0 0.00 0.00 0.00 75 1013.8
20220125143046 36 293 2.0 5.0 0.00 0.00 0.00 75 1013.9
20220125142532 36 291 2.0 6.0 0.00 0.00 0.00 76 1013.7
20220125142035 35 320 1.0 9.0 0.00 0.00 0.00 76 1013.6
20220125141529 35 359 3.0 9.0 0.00 0.00 0.00 76 1013.5
20220125141029 35 294 2.0 8.0 0.00 0.00 0.00 76 1013.4
20220125140519 35 287 2.0 8.0 0.00 0.00 0.00 77 1013.4
20220125140044 35 359 3.0 8.0 0.00 0.00 0.00 77 1013.2
20220125135521 35 339 4.0 8.0 0.00 0.00 0.00 77 1013.1
20220125135036 35 282 2.0 5.0 0.00 0.00 0.00 78 1013.2
20220125134521 35 275 1.0 3.0 0.00 0.00 0.00 79 1013.2
20220125134014 34 243 1.0 3.0 0.00 0.00 0.00 79 1013.1
20220125133521 34 262 0.0 3.0 0.00 0.00 0.00 80 1012.9
20220125133043 34 262 1.0 4.0 0.00 0.00 0.00 80 1012.9
20220125132514 34 264 2.0 4.0 0.00 0.00 0.00 81 1013.0
20220125132013 33 243 1.0 3.0 0.00 0.00 0.00 82 1012.9
20220125131515 33 235 0.0 3.0 0.00 0.00 0.00 83 1012.8
20220125131033 33 235 1.0 3.0 0.00 0.00 0.00 83 1012.8
20220125130511 33 235 0.0 3.0 0.00 0.00 0.00 84 1012.8
20220125130056 32 237 0.0 1.0 0.00 0.00 0.00 84 1012.6
20220125125533 32 247 0.0 0.0 0.00 0.00 0.00 84 1012.4
20220125125024 32 248 0.0 0.0 0.00 0.00 0.00 84 1012.3
20220125124532 32 249 0.0 0.0 0.00 0.00 0.00 83 1012.3
20220125124006 32 248 0.0 0.0 0.00 0.00 0.00 83 1012.0
20220125123506 31 249 0.0 0.0 0.00 0.00 0.00 83 1011.7
20220125123009 31 249 0.0 0.0 0.00 0.00 0.00 83 1011.8
20220125122505 31 249 0.0 0.0 0.00 0.00 0.00 82 1011.7
20220125122010 31 249 0.0 0.0 0.00 0.00 0.00 82 1011.5
20220125121505 32 249 0.0 0.0 0.00 0.00 0.00 82 1011.0
20220125121002 32 249 0.0 0.0 0.00 0.00 0.00 81 1010.9
20220125120503 32 248 0.0 0.0 0.00 0.00 0.00 80 1011.0
20220125115600 32 249 0.0 0.0 0.00 0.00 0.00 80 1010.9
20220125115058 33 249 0.0 0.0 0.00 0.00 0.00 80 1010.8
20220125114643 33 249 0.0 0.0 0.00 0.00 0.00 79 1010.7
20220125114106 33 249 0.0 0.0 0.00 0.00 0.00 80 1010.7
20220125113557 32 251 0.0 0.0 0.00 0.00 0.00 79 1010.9
20220125113328 32 252 0.0 0.0 0.00 0.00 0.00 79 1010.9
20220125112555 33 252 0.0 0.0 0.00 0.00 0.00 78 1010.8
20220125112059 33 251 0.0 0.0 0.00 0.00 0.00 78 1010.7
20220125111636 33 251 0.0 0.0 0.00 0.00 0.00 78 1010.6
20220125111050 33 252 0.0 0.0 0.00 0.00 0.00 77 1010.6
20220125110550 33 251 0.0 0.0 0.00 0.00 0.00 78 1010.7
20220125110147 33 251 0.0 0.0 0.00 0.00 0.00 77 1010.6
20220125105555 33 252 0.0 0.0 0.00 0.00 0.00 77 1010.5
20220125105105 34 251 0.0 0.0 0.00 0.00 0.00 77 1010.5
20220125104644 34 252 0.0 0.0 0.00 0.00 0.00 77 1010.5
20220125104050 34 251 0.0 0.0 0.00 0.00 0.00 77 1010.5
20220125103554 34 252 0.0 0.0 0.00 0.00 0.00 76 1010.4
20220125103055 34 252 0.0 0.0 0.00 0.00 0.00 76 1010.5
20220125102543 34 251 0.0 0.0 0.00 0.00 0.00 76 1010.4
20220125102043 34 252 0.0 0.0 0.00 0.00 0.00 76 1010.1
20220125101622 34 251 0.0 0.0 0.00 0.00 0.00 76 1010.1
20220125101050 34 251 0.0 0.0 0.00 0.00 0.00 76 1010.0
20220125100543 34 258 0.0 0.0 0.00 0.00 0.00 76 1010.1
20220125100136 34 259 0.0 0.0 0.00 0.00 0.00 76 1010.1
20220125095542 34 259 0.0 0.0 0.00 0.00 0.00 76 1010.0
20220125095047 34 260 0.0 0.0 0.00 0.00 0.00 76 1009.9
20220125094552 34 259 0.0 0.0 0.00 0.00 0.00 75 1009.8
20220125094041 34 258 0.0 2.0 0.00 0.00 0.00 75 1009.8
20220125093552 34 260 0.0 2.0 0.00 0.00 0.00 75 1009.8
20220125093114 34 259 1.0 2.0 0.00 0.00 0.00 75 1010.0
20220125092548 34 258 0.0 2.0 0.00 0.00 0.00 75 1010.0
20220125092046 34 259 0.0 2.0 0.00 0.00 0.00 75 1010.1
20220125091641 34 259 0.0 4.0 0.00 0.00 0.00 75 1009.9
20220125091039 34 260 1.0 4.0 0.00 0.00 0.00 75 1009.9
20220125090534 34 294 1.0 4.0 0.00 0.00 0.00 75 1009.8
20220125090043 34 231 1.0 3.0 0.00 0.00 0.00 75 1009.7
20220125085532 34 228 0.0 0.0 0.00 0.00 0.00 75 1009.8
20220125085039 34 228 0.0 2.0 0.00 0.00 0.00 75 1009.8
20220125084535 34 228 1.0 2.0 0.00 0.00 0.00 75 1009.7
20220125084037 34 228 0.0 2.0 0.00 0.00 0.00 75 1009.7
20220125083601 34 228 1.0 2.0 0.00 0.00 0.00 75 1009.7
20220125083030 34 228 0.0 2.0 0.00 0.00 0.00 75 1009.7
20220125082523 34 228 0.0 2.0 0.00 0.00 0.00 75 1009.7
20220125082035 34 228 0.0 3.0 0.00 0.00 0.00 75 1009.8
20220125081541 34 227 1.0 3.0 0.00 0.00 0.00 75 1009.7
20220125081034 34 228 0.0 3.0 0.00 0.00 0.00 75 1009.7
20220125080517 34 228 1.0 3.0 0.00 0.00 0.00 75 1009.8
20220125080109 34 228 1.0 3.0 0.00 0.00 0.00 75 1009.8
20220125075514 34 227 0.0 0.0 0.00 0.00 0.00 75 1009.9
20220125075014 34 226 0.0 0.0 0.00 0.00 0.00 75 1009.8
20220125074521 34 227 0.0 0.0 0.00 0.00 0.00 75 1009.8
20220125074017 34 227 0.0 2.0 0.00 0.00 0.00 75 1009.6
20220125073509 34 227 1.0 3.0 0.00 0.00 0.00 75 1009.7
20220125073008 34 227 1.0 5.0 0.00 0.00 0.00 75 1009.6
20220125072506 34 227 1.0 5.0 0.00 0.00 0.00 75 1009.5
20220125072010 34 263 2.0 6.0 0.00 0.00 0.00 75 1009.6
20220125071506 34 219 2.0 5.0 0.00 0.00 0.00 76 1009.5
20220125071009 34 172 0.0 3.0 0.00 0.00 0.00 76 1009.5
20220125070502 34 172 0.0 3.0 0.00 0.00 0.00 76 1009.5
20220125070011 34 171 0.0 0.0 0.00 0.00 0.00 76 1009.4
20220125065501 34 171 0.0 0.0 0.00 0.00 0.00 76 1009.5
20220125064502 34 172 0.0 0.0 0.00 0.00 0.00 76 1009.6
20220125064059 34 172 0.0 0.0 0.00 0.00 0.00 76 1009.6
20220125063558 34 171 0.0 0.0 0.00 0.00 0.00 76 1009.7
20220125063127 34 172 0.0 0.0 0.00 0.00 0.00 75 1009.6
20220125062558 34 171 0.0 0.0 0.00 0.00 0.00 75 1009.6
20220125062503 34 171 0.0 0.0 0.00 0.00 0.00 75 1009.6
20220125062108 34 172 0.0 0.0 0.00 0.00 0.00 75 1009.7
20220125061637 34 171 0.0 0.0 0.00 0.00 0.00 75 1009.6
20220125061056 34 170 0.0 0.0 0.00 0.00 0.00 75 1009.7
20220125060610 34 172 0.0 0.0 0.00 0.00 0.00 75 1009.7
20220125060320 33 171 0.0 0.0 0.00 0.00 0.00 75 1009.8
20220125055553 33 171 0.0 0.0 0.00 0.00 0.00 74 1009.8
20220125055103 33 171 0.0 0.0 0.00 0.00 0.00 74 1009.9
20220125054639 33 171 0.0 0.0 0.00 0.00 0.00 74 1009.9
20220125054049 33 172 0.0 0.0 0.00 0.00 0.00 74 1009.9
20220125053548 33 171 0.0 0.0 0.00 0.00 0.00 74 1010.0
20220125053135 33 171 0.0 0.0 0.00 0.00 0.00 74 1010.0
20220125052549 33 172 0.0 0.0 0.00 0.00 0.00 74 1010.1
20220125052047 33 172 0.0 1.0 0.00 0.00 0.00 73 1010.1
20220125051814 33 171 0.0 2.0 0.00 0.00 0.00 73 1010.1
20220125051045 33 172 1.0 2.0 0.00 0.00 0.00 73 1010.3
20220125050545 33 172 1.0 4.0 0.00 0.00 0.00 73 1010.3
20220125050149 33 173 0.0 4.0 0.00 0.00 0.00 73 1010.4
20220125045552 33 172 0.0 2.0 0.00 0.00 0.00 73 1010.5